Погода в Сватае

Россия / Республика Саха (Якутия)     68°03′33″N   151°47′55″E
темп.,
°C
ветер,
м/с
пор.,
м/с
влажн.,
%
обл.,
%
осадки,
мм/ч
давл.,
гПа
погр.,
м
3 марта, ср
ср323:00−37з229925 0.0 102719
02:00−38з1110075 0.0 102619
05:00−39юз1110070 0.0 102619
08:00−38ююз1110090 0.0 102519
11:00−34юв119295 0.0 1024145
14:00−32вюв1189100 0.0 1022281
17:00−31в2294100 0.2 1020306
20:00−35всв1110098 0.1 101919
4 марта, чт
чт423:00−36ссв2310092 0.1 101719
02:00−37с3410090 0.0 101522
05:00−35ссз579796 0.0 1012242
08:00−34ссз61096100 0.1 1009373
11:00−32ссз91296100 0.4 1005485
14:00−30ссз101495100 0.3 1001564
17:00−29ссз101495100 0.6 997785
20:00−27сз101597100 0.6 995725
5 марта, пт
пт523:00−24ссз101597100 1.6 992786
02:00−24ссз111696100 0.9 991777
05:00−24ссз101495100 1.4 992939
08:00−23ссз101495100 0.4 992864
11:00−22ссз101494100 0.7 993982
14:00−21ссз111494100 0.3 9941073
17:00−21ссз101395100 0.8 9961055
20:00−21ссз101396100 0.6 998885
6 марта, сб
сб623:00−21с91396100 1.1 1000797
02:00−21с91396100 0.5 1002791
05:00−22ссз101496100 1.1 1003812
08:00−24ссз101596100 0.5 1004764
11:00−23ссз101496100 1.1 1004924
14:00−23ссз101494100 0.6 10041078
17:00−23ссз101495100 1.0 10051061
20:00−24ссз91495100 0.4 1005967
7 марта, вс
вс723:00−24с91395100 0.9 10061003
02:00−25с81295100 0.3 1006837
05:00−25с71196100 0.6 1008679
08:00−26ссз71195100 0.2 1010554
11:00−26с71092100 0.3 1012595
14:00−26с7991100 0.0 1013606
17:00−28ссз5993100 0.1 1015237
20:00−32сз589441 0.0 101598